YAOGAN-30 H

导读

YAOGAN-30 H(遥感三十号H星)是中国于北京时间2017年12月25日08时发射的遥感卫星,隶属于遥感三十号系列。作为组网卫星之一,它与同批次发射的G、J星共同构成多星观测系统,主要用于开展空间环境探测与科学实验研究,服务于国土资源普查、防灾减灾等领域,进一步完善中国遥感卫星星座布局,提升空间信息获取能力。

Basic Information
目录编号:
43082
目录名称:
YAOGAN-30 H
国际标识:
2017-085B
轨道中心:
EARTH
卫星名称:
YAOGAN-30 H
卫星全名:
--
卫星状态:
在轨 (已飞行3095 天)
发射日期:
2017-12-25 UTC
国别 :
中国 (CN)
星等 :
--
Orbit Information
数据来源 国际轨道数据 AOE轨道数据
星历时间 2026-06-16T15:29:00+0800
4小时前
查看轨道信息
2026-06-11T01:00:00+0800
5天前
查看轨道信息
半长轴 6936.756km 6936.814km
偏心率 0.0004923 0.0005366
轨道倾角 34.993° 34.993°
近地点辐角 326.790° 282.814°
升交点赤经 155.483° 189.634°
平近点角 33.250° 315.476°
近地点 555.204km 554.954km
远地点 562.034km 562.4km
周期 95.828分钟 95.830分钟
每日圈数 15.026859 15.026669
Detailed Information
使用方式:
暂无
2D Orbit Map
3D Orbit Map
Orbit Altitude Analysis Chart
Orbit Inclination Analysis Chart
Orbit Comprehensive Analysis Chart
View Comprehensive Chart